Regional Weather Roundup
Issued by NWS

Home | Current Version | Previous Version | Text Only | Print | Product List | Glossary Off
Versions: 1 2 3 4 5 6 7 8 9 10 11 12 13 14 15 16 17 18 19 20 21 22 23 24 25 26 27 28

000
ASUS45 KCYS 221910
RWRWY

WYOMING REGIONAL WEATHER ROUNDUP
NATIONAL WEATHER SERVICE CHEYENNE WY
100 PM MDT FRI JUL 22 2016

NOTE:  "FAIR" INDICATES FEW OR NO CLOUDS BELOW 12,000 FEET
WITH NO SIGNIFICANT WEATHER AND/OR OBSTRUCTIONS TO VISIBILITY.

WYZ001-222000-
YELLOWSTONE NATIONAL PARK

CITY           SKY/WX    TMP DP  RH WIND       PRES   REMARKS
LK YELLOWSTONE   N/A     78  41  26 SW8       30.37F
W YELLOWSTONE  NOT AVBL

$$
WYZ002>013-054>058-071-098>099-222000-
NORTHERN WYOMING

CITY           SKY/WX    TMP DP  RH WIND       PRES   REMARKS
JACKSON        SUNNY     86  43  22 S12G17    30.26F
CODY           FAIR      91  37  15 SW9G16    30.11F
GREYBULL       FAIR      97  37  12 S5        30.01F HX  92
WORLAND        FAIR      98  35  11 N6        30.04F HX  93
SHERIDAN       FAIR      95  43  16 E3        30.01F HX  91
BUFFALO        FAIR      96  37  12 N9        30.08F HX  91
GILLETTE       FAIR      99  38  12 S20G25    30.04F HX  94
HULETT         FAIR      99  41  13 SW15G25   30.07F HX  94
NEWCASTLE      FAIR      95  45  17 SE17G23   30.11F HX  91

$$
WYZ014>020-022>026-101>103-222000-
CENTRAL WYOMING

CITY           SKY/WX    TMP DP  RH WIND       PRES   REMARKS
BIG PINEY      FAIR      84  42  22 SW9       30.34F
PINEDALE       FAIR      82  36  18 NE9       30.35F
DUBOIS         FAIR      84  34  16 SW12G24   30.31F
LANDER         FAIR      88  39  17 SE6       30.18F
RIVERTON       FAIR      89  38  16 SW6       30.19F
CASPER         FAIR      89  44  20 S8        30.18F
DOUGLAS          N/A    N/A N/A N/A MISG      30.17F

$$
WYZ021-027>030-104>119-222000-
SOUTHERN WYOMING

CITY           SKY/WX    TMP DP  RH WIND       PRES   REMARKS
EVANSTON       FAIR      85  38  18 SW15G28   30.34F
KEMMERER         N/A    N/A N/A N/A CALM      30.36F
FORT BRIDGER   CLEAR     82  39  21 CALM      30.37F
ROCK SPRINGS   FAIR      87  37  17 W8        30.33F
DIXON          FAIR      84  45  24 S5        30.37F
RAWLINS        FAIR      87  39  18 W14G25    30.33F
SARATOGA       FAIR      82  39  21 W13G18    30.37F
LARAMIE        FAIR      84  44  24 SW10G18   30.36F
CHEYENNE       FAIR      87  44  22 CALM      30.27F
TORRINGTON     FAIR      90  58  33 SE8       30.11F
PINE BLUFFS    FAIR      91  45  19 S5        30.21F

$$




USA.gov is the U.S. government's official web portal to all federal, state and local government web resources and services.